HAKGR LFML-LSZB

Flight info

Callsign HAKGR
Flight time 1h 16m
Altitude 23000
Route ETREK G53 LTP N871 SOPLO DCT OMASI N871 TELNO
Aircraft B350/L-SBGR/C

Departure

Time 2026-04-29 16:06
Airport Marseille Provence Airport (LFML)

Arrival

Time 2026-04-29 17:22
Airport Bern Airport (LSZB)
Time Latitude Longitude Altitude Speed Heading
2026-04-29 15:53 43.44312 5.21304 18 ft 0 kts 25°
2026-04-29 16:01 43.44314 5.21304 18 ft 2 kts 14°
2026-04-29 16:02 43.44305 5.21266 18 ft 7 kts 204°
2026-04-29 16:02 43.44242 5.21270 19 ft 9 kts 217°
2026-04-29 16:02 43.44200 5.21173 19 ft 10 kts 242°
2026-04-29 16:02 43.44193 5.21154 18 ft 2 kts 241°
2026-04-29 16:03 43.44198 5.21085 17 ft 14 kts 304°
2026-04-29 16:03 43.44281 5.20954 14 ft 19 kts 302°
2026-04-29 16:03 43.44309 5.20842 13 ft 10 kts 264°
2026-04-29 16:03 43.44289 5.20791 13 ft 8 kts 229°
2026-04-29 16:04 43.44237 5.20707 13 ft 15 kts 236°
2026-04-29 16:04 43.44181 5.20570 13 ft 15 kts 240°
2026-04-29 16:04 43.44137 5.20459 13 ft 14 kts 239°
2026-04-29 16:04 43.44060 5.20410 11 ft 11 kts 158°
2026-04-29 16:05 43.44039 5.20432 11 ft 0 kts 135°
2026-04-29 16:05 43.43968 5.20526 12 ft 45 kts 136°
2026-04-29 16:05 43.43600 5.21025 32 ft 99 kts 135°
2026-04-29 16:06 43.43065 5.21794 273 ft 120 kts 138°
2026-04-29 16:06 43.42444 5.22653 625 ft 133 kts 131°
2026-04-29 16:06 43.42189 5.23882 1125 ft 141 kts 89°
2026-04-29 16:06 43.42476 5.25161 1730 ft 144 kts 73°
2026-04-29 16:07 43.42898 5.26460 2223 ft 152 kts 73°
2026-04-29 16:07 43.43205 5.27868 2738 ft 154 kts 79°
2026-04-29 16:07 43.43749 5.29174 3216 ft 168 kts 44°
2026-04-29 16:07 43.44909 5.29662 3533 ft 191 kts 356°
2026-04-29 16:08 43.46161 5.28997 3970 ft 191 kts 338°
2026-04-29 16:08 43.47346 5.28195 4515 ft 189 kts 342°
2026-04-29 16:08 43.48578 5.27491 4837 ft 196 kts 342°
2026-04-29 16:08 43.49896 5.26735 4898 ft 212 kts 342°
2026-04-29 16:09 43.51304 5.26015 4963 ft 216 kts 346°
2026-04-29 16:09 43.52753 5.25676 5281 ft 208 kts 354°
2026-04-29 16:09 43.54157 5.25255 5604 ft 210 kts 347°
2026-04-29 16:09 43.55569 5.24648 5942 ft 210 kts 344°
2026-04-29 16:10 43.56946 5.24030 6264 ft 211 kts 345°
2026-04-29 16:10 43.58349 5.23422 6585 ft 211 kts 345°
2026-04-29 16:10 43.59750 5.22805 6898 ft 212 kts 343°
2026-04-29 16:10 43.61150 5.22169 7209 ft 212 kts 342°
2026-04-29 16:11 43.62556 5.21534 7528 ft 213 kts 343°
2026-04-29 16:11 43.63969 5.20901 7850 ft 213 kts 342°
2026-04-29 16:11 43.65384 5.20264 8173 ft 214 kts 341°
2026-04-29 16:11 43.66803 5.19625 8496 ft 215 kts 341°
2026-04-29 16:12 43.68227 5.18984 8831 ft 215 kts 341°
2026-04-29 16:12 43.69169 5.18561 9053 ft 215 kts 340°
2026-04-29 16:12 43.71083 5.17697 9503 ft 218 kts 339°
2026-04-29 16:12 43.72530 5.17026 9839 ft 221 kts 340°
2026-04-29 16:13 43.73997 5.16320 10150 ft 225 kts 339°
2026-04-29 16:13 43.75482 5.15614 10466 ft 226 kts 339°
2026-04-29 16:13 43.76977 5.14908 10786 ft 228 kts 340°
2026-04-29 16:13 43.78471 5.14203 11100 ft 230 kts 339°
2026-04-29 16:14 43.79997 5.13479 11423 ft 232 kts 339°
2026-04-29 16:14 43.81526 5.12755 11755 ft 233 kts 338°
2026-04-29 16:14 43.83062 5.12027 12078 ft 234 kts 338°
2026-04-29 16:14 43.84603 5.11296 12406 ft 234 kts 337°
2026-04-29 16:15 43.86147 5.10563 12738 ft 235 kts 339°
2026-04-29 16:15 43.87696 5.09828 13077 ft 235 kts 338°
2026-04-29 16:15 43.89280 5.09295 13415 ft 235 kts 349°
2026-04-29 16:15 43.90892 5.08943 13755 ft 235 kts 347°
2026-04-29 16:16 43.92495 5.08577 14066 ft 232 kts 346°
2026-04-29 16:16 43.94085 5.08212 14369 ft 230 kts 347°
2026-04-29 16:16 43.95642 5.07855 14669 ft 228 kts 346°
2026-04-29 16:16 43.97195 5.07500 14978 ft 225 kts 346°
2026-04-29 16:17 43.98741 5.07145 15288 ft 225 kts 346°
2026-04-29 16:17 44.00279 5.06796 15600 ft 223 kts 346°
2026-04-29 16:17 44.01808 5.06444 15919 ft 222 kts 348°
2026-04-29 16:17 44.03330 5.06094 16246 ft 221 kts 346°
2026-04-29 16:18 44.04849 5.05746 16568 ft 222 kts 346°
2026-04-29 16:18 44.06380 5.05394 16901 ft 223 kts 346°
2026-04-29 16:18 44.07909 5.05044 17236 ft 223 kts 346°
2026-04-29 16:18 44.09440 5.04694 17574 ft 223 kts 348°
2026-04-29 16:19 44.10979 5.04337 17920 ft 224 kts 346°
2026-04-29 16:19 44.12505 5.03987 18208 ft 227 kts 347°
2026-04-29 16:19 44.14068 5.03628 18453 ft 229 kts 347°
2026-04-29 16:19 44.15645 5.03264 18687 ft 230 kts 347°
2026-04-29 16:20 44.17237 5.02899 18923 ft 232 kts 348°
2026-04-29 16:20 44.18836 5.02530 19161 ft 233 kts 348°
2026-04-29 16:20 44.20444 5.02160 19405 ft 234 kts 347°
2026-04-29 16:20 44.22059 5.01787 19640 ft 236 kts 346°
2026-04-29 16:21 44.23679 5.01413 19877 ft 236 kts 348°
2026-04-29 16:21 44.25300 5.01040 20122 ft 236 kts 347°
2026-04-29 16:21 44.26921 5.00665 20366 ft 236 kts 347°
2026-04-29 16:21 44.28540 5.00290 20611 ft 236 kts 347°
2026-04-29 16:22 44.30144 4.99919 20856 ft 236 kts 348°
2026-04-29 16:22 44.31765 4.99544 21109 ft 236 kts 348°
2026-04-29 16:22 44.33391 4.99168 21361 ft 237 kts 348°
2026-04-29 16:22 44.35017 4.98791 21616 ft 237 kts 348°
2026-04-29 16:23 44.36645 4.98414 21873 ft 237 kts 348°
2026-04-29 16:23 44.38274 4.98036 22130 ft 237 kts 348°
2026-04-29 16:23 44.39909 4.97657 22330 ft 240 kts 348°
2026-04-29 16:23 44.41569 4.97270 22464 ft 244 kts 348°
2026-04-29 16:24 44.43251 4.96880 22602 ft 246 kts 348°
2026-04-29 16:24 44.44946 4.96486 22740 ft 248 kts 348°
2026-04-29 16:24 44.46077 4.96223 22828 ft 249 kts 348°
2026-04-29 16:24 44.47788 4.95826 22971 ft 250 kts 348°
2026-04-29 16:25 44.49521 4.95421 22983 ft 255 kts 348°
2026-04-29 16:25 44.51287 4.95009 22994 ft 259 kts 348°
2026-04-29 16:25 44.53072 4.94595 22995 ft 258 kts 348°
2026-04-29 16:25 44.54831 4.94186 22994 ft 255 kts 348°
2026-04-29 16:26 44.56568 4.93781 22989 ft 252 kts 348°
2026-04-29 16:26 44.58293 4.93377 22984 ft 250 kts 348°
2026-04-29 16:26 44.60008 4.92976 22985 ft 249 kts 348°
2026-04-29 16:26 44.61714 4.92577 22981 ft 248 kts 348°
2026-04-29 16:27 44.63410 4.92180 22977 ft 247 kts 348°
2026-04-29 16:27 44.65107 4.91783 22980 ft 246 kts 348°
2026-04-29 16:27 44.66797 4.91387 22985 ft 246 kts 348°
2026-04-29 16:27 44.68467 4.90995 22982 ft 246 kts 348°
2026-04-29 16:28 44.70151 4.90600 22981 ft 245 kts 348°
2026-04-29 16:28 44.71836 4.90205 22978 ft 245 kts 348°
2026-04-29 16:28 44.73456 4.89558 22986 ft 240 kts 335°
2026-04-29 16:28 44.75004 4.88670 22984 ft 240 kts 335°
2026-04-29 16:29 44.76558 4.87783 22985 ft 241 kts 335°
2026-04-29 16:29 44.78120 4.86905 22987 ft 242 kts 335°
2026-04-29 16:29 44.79685 4.86028 22988 ft 242 kts 336°
2026-04-29 16:29 44.81251 4.85147 22988 ft 243 kts 336°
2026-04-29 16:30 44.82821 4.84262 22986 ft 243 kts 335°
2026-04-29 16:30 44.84390 4.83377 22987 ft 243 kts 335°
2026-04-29 16:30 44.85960 4.82492 22987 ft 243 kts 336°
2026-04-29 16:30 44.87505 4.81620 22986 ft 243 kts 335°
2026-04-29 16:31 44.89070 4.80736 22986 ft 241 kts 335°
2026-04-29 16:31 44.90628 4.79856 22993 ft 241 kts 336°
2026-04-29 16:31 44.92181 4.78979 22994 ft 240 kts 336°
2026-04-29 16:31 44.93736 4.78099 22993 ft 240 kts 335°
2026-04-29 16:32 44.95285 4.77221 22996 ft 240 kts 335°
2026-04-29 16:32 44.96839 4.76342 22995 ft 240 kts 336°
2026-04-29 16:32 44.98392 4.75462 22995 ft 241 kts 336°
2026-04-29 16:32 44.99949 4.74579 22995 ft 241 kts 335°
2026-04-29 16:33 45.03062 4.72813 23003 ft 241 kts 335°
2026-04-29 16:33 45.04616 4.71930 23005 ft 241 kts 335°
2026-04-29 16:33 45.06172 4.71046 23008 ft 241 kts 335°
2026-04-29 16:34 45.07710 4.70171 23007 ft 241 kts 336°
2026-04-29 16:34 45.09286 4.69274 23007 ft 241 kts 335°
2026-04-29 16:34 45.10827 4.68397 23007 ft 241 kts 336°
2026-04-29 16:34 45.12378 4.67514 23008 ft 241 kts 336°
2026-04-29 16:35 45.13931 4.66628 23010 ft 241 kts 335°
2026-04-29 16:35 45.15487 4.65742 23009 ft 240 kts 336°
2026-04-29 16:35 45.17121 4.65295 23009 ft 243 kts
2026-04-29 16:35 45.18759 4.65885 23011 ft 248 kts 26°
2026-04-29 16:36 45.20082 4.67450 23015 ft 252 kts 52°
2026-04-29 16:36 45.20969 4.69592 23009 ft 252 kts 60°
2026-04-29 16:36 45.21793 4.71786 23012 ft 253 kts 60°
2026-04-29 16:36 45.22623 4.73990 23011 ft 253 kts 60°
2026-04-29 16:37 45.23462 4.76192 23012 ft 254 kts 60°
2026-04-29 16:37 45.24302 4.78394 23010 ft 254 kts 60°
2026-04-29 16:37 45.25140 4.80600 23011 ft 254 kts 60°
2026-04-29 16:37 45.25695 4.82064 23012 ft 254 kts 60°
2026-04-29 16:38 45.26818 4.85024 23011 ft 254 kts 60°
2026-04-29 16:38 45.27656 4.87234 23011 ft 254 kts 60°
2026-04-29 16:38 45.28493 4.89446 23009 ft 255 kts 60°
2026-04-29 16:38 45.29332 4.91662 23011 ft 255 kts 60°
2026-04-29 16:39 45.30172 4.93883 23012 ft 255 kts 60°
2026-04-29 16:39 45.31000 4.96077 23013 ft 255 kts 60°
2026-04-29 16:39 45.31839 4.98298 23014 ft 255 kts 60°
2026-04-29 16:39 45.32679 5.00524 23014 ft 255 kts 60°
2026-04-29 16:40 45.33518 5.02751 23016 ft 255 kts 60°
2026-04-29 16:40 45.34357 5.04979 23017 ft 255 kts 60°
2026-04-29 16:40 45.35195 5.07206 23017 ft 255 kts 60°
2026-04-29 16:40 45.36033 5.09435 23018 ft 256 kts 60°
2026-04-29 16:41 45.36872 5.11670 23021 ft 256 kts 60°
2026-04-29 16:41 45.37709 5.13898 23021 ft 256 kts 60°
2026-04-29 16:41 45.38547 5.16135 23021 ft 256 kts 60°
2026-04-29 16:41 45.39384 5.18369 23021 ft 256 kts 60°
2026-04-29 16:42 45.40209 5.20574 23022 ft 256 kts 60°
2026-04-29 16:42 45.41046 5.22811 23022 ft 256 kts 60°
2026-04-29 16:42 45.41891 5.25072 23022 ft 256 kts 60°
2026-04-29 16:42 45.42716 5.27283 23023 ft 256 kts 60°
2026-04-29 16:43 45.43550 5.29518 23022 ft 256 kts 60°
2026-04-29 16:43 45.44385 5.31759 23022 ft 256 kts 60°
2026-04-29 16:43 45.45219 5.33999 23022 ft 256 kts 60°
2026-04-29 16:43 45.46054 5.36242 23020 ft 256 kts 60°
2026-04-29 16:44 45.46889 5.38486 23019 ft 256 kts 60°
2026-04-29 16:44 45.47722 5.40728 23021 ft 256 kts 60°
2026-04-29 16:44 45.48555 5.42966 23020 ft 255 kts 59°
2026-04-29 16:44 45.49662 5.44886 23021 ft 249 kts 39°
2026-04-29 16:45 45.50967 5.46531 23025 ft 250 kts 39°
2026-04-29 16:45 45.52271 5.48177 23020 ft 251 kts 39°
2026-04-29 16:45 45.53573 5.49833 23020 ft 251 kts 39°
2026-04-29 16:45 45.54878 5.51494 23019 ft 251 kts 39°
2026-04-29 16:46 45.56186 5.53159 23017 ft 252 kts 39°
2026-04-29 16:46 45.57473 5.54805 23025 ft 252 kts 39°
2026-04-29 16:46 45.58776 5.56478 23017 ft 252 kts 39°
2026-04-29 16:46 45.60079 5.58150 23017 ft 252 kts 39°
2026-04-29 16:47 45.61383 5.59825 23020 ft 252 kts 39°
2026-04-29 16:47 45.62685 5.61496 23016 ft 252 kts 39°
2026-04-29 16:47 45.63988 5.63170 23016 ft 252 kts 39°
2026-04-29 16:47 45.65295 5.64851 23022 ft 252 kts 39°
2026-04-29 16:48 45.66600 5.66530 23015 ft 252 kts 39°
2026-04-29 16:48 45.67900 5.68200 23018 ft 251 kts 39°
2026-04-29 16:48 45.69205 5.69866 23020 ft 251 kts 39°
2026-04-29 16:48 45.70508 5.71534 23019 ft 252 kts 39°
2026-04-29 16:49 45.71814 5.73208 23028 ft 251 kts 39°
2026-04-29 16:49 45.73115 5.74877 23023 ft 251 kts 39°
2026-04-29 16:49 45.74417 5.76549 23031 ft 252 kts 39°
2026-04-29 16:49 45.75707 5.78203 23026 ft 252 kts 39°
2026-04-29 16:50 45.77014 5.79882 23032 ft 252 kts 39°
2026-04-29 16:50 45.78319 5.81559 23029 ft 252 kts 39°
2026-04-29 16:50 45.79625 5.83238 23037 ft 252 kts 39°
2026-04-29 16:50 45.80930 5.84917 23038 ft 252 kts 39°
2026-04-29 16:51 45.82236 5.86600 23045 ft 252 kts 38°
2026-04-29 16:51 45.83541 5.88282 23039 ft 252 kts 38°
2026-04-29 16:51 45.84847 5.89964 23043 ft 252 kts 38°
2026-04-29 16:51 45.86151 5.91647 23048 ft 252 kts 38°
2026-04-29 16:52 45.87452 5.93328 23044 ft 251 kts 38°
2026-04-29 16:52 45.88750 5.95004 23046 ft 251 kts 38°
2026-04-29 16:52 45.90045 5.96677 23046 ft 251 kts 38°
2026-04-29 16:52 45.91327 5.98336 23049 ft 251 kts 38°
2026-04-29 16:53 45.92622 6.00012 23048 ft 250 kts 38°
2026-04-29 16:53 45.93917 6.01690 23044 ft 251 kts 38°
2026-04-29 16:53 45.95211 6.03367 23052 ft 250 kts 38°
2026-04-29 16:53 45.96503 6.05043 23053 ft 251 kts 38°
2026-04-29 16:54 45.97802 6.06728 23046 ft 251 kts 38°
2026-04-29 16:54 45.99097 6.08411 23045 ft 251 kts 38°
2026-04-29 16:54 46.00392 6.10092 23051 ft 251 kts 38°
2026-04-29 16:54 46.01684 6.11773 23042 ft 251 kts 37°
2026-04-29 16:55 46.02979 6.13458 23043 ft 251 kts 38°
2026-04-29 16:55 46.04272 6.15142 23044 ft 250 kts 38°
2026-04-29 16:55 46.05566 6.16828 23045 ft 251 kts 38°
2026-04-29 16:55 46.06863 6.18520 23045 ft 251 kts 38°
2026-04-29 16:56 46.08158 6.20208 23046 ft 251 kts 38°
2026-04-29 16:56 46.09450 6.21895 23063 ft 251 kts 38°
2026-04-29 16:56 46.10726 6.23562 23066 ft 250 kts 38°
2026-04-29 16:56 46.12017 6.25250 23066 ft 251 kts 38°
2026-04-29 16:57 46.13310 6.26941 23067 ft 251 kts 38°
2026-04-29 16:57 46.14601 6.28631 23065 ft 251 kts 38°
2026-04-29 16:57 46.15890 6.30320 23067 ft 251 kts 38°
2026-04-29 16:57 46.17182 6.32012 23069 ft 251 kts 38°
2026-04-29 16:58 46.18472 6.33706 23068 ft 251 kts 38°
2026-04-29 16:58 46.19765 6.35401 23070 ft 251 kts 38°
2026-04-29 16:58 46.21056 6.37098 23072 ft 251 kts 38°
2026-04-29 16:58 46.22346 6.38793 23072 ft 250 kts 38°
2026-04-29 16:59 46.23633 6.40485 23073 ft 251 kts 38°
2026-04-29 16:59 46.24924 6.42184 23073 ft 252 kts 38°
2026-04-29 16:59 46.26203 6.43869 23075 ft 252 kts 38°
2026-04-29 16:59 46.27515 6.45598 23074 ft 252 kts 38°
2026-04-29 17:00 46.28793 6.47284 23075 ft 251 kts 38°
2026-04-29 17:00 46.30090 6.48985 23075 ft 252 kts 38°
2026-04-29 17:00 46.31394 6.50680 23075 ft 252 kts 38°
2026-04-29 17:00 46.32684 6.52399 23075 ft 252 kts 39°
2026-04-29 17:01 46.33971 6.54127 23078 ft 252 kts 38°
2026-04-29 17:01 46.35266 6.55841 23078 ft 252 kts 38°
2026-04-29 17:01 46.36560 6.57548 23076 ft 252 kts 38°
2026-04-29 17:01 46.37853 6.59260 23081 ft 252 kts 38°
2026-04-29 17:02 46.39147 6.60977 23082 ft 251 kts 37°
2026-04-29 17:02 46.40440 6.62692 22824 ft 257 kts 38°
2026-04-29 17:02 46.41781 6.64467 22422 ft 265 kts 38°
2026-04-29 17:02 46.43148 6.66285 22042 ft 269 kts 38°
2026-04-29 17:03 46.44514 6.68156 21662 ft 272 kts 44°
2026-04-29 17:03 46.45709 6.70287 21286 ft 274 kts 47°
2026-04-29 17:03 46.46906 6.72454 20918 ft 276 kts 47°
2026-04-29 17:03 46.48117 6.74621 20546 ft 276 kts 47°
2026-04-29 17:04 46.49329 6.76788 20188 ft 277 kts 47°
2026-04-29 17:04 46.50541 6.78964 19826 ft 277 kts 47°
2026-04-29 17:04 46.51753 6.81143 19469 ft 277 kts 47°
2026-04-29 17:04 46.52951 6.83298 19113 ft 277 kts 48°
2026-04-29 17:05 46.54160 6.85475 18766 ft 277 kts 48°
2026-04-29 17:05 46.55368 6.87650 18423 ft 276 kts 47°
2026-04-29 17:05 46.56570 6.89816 18030 ft 275 kts 47°
2026-04-29 17:05 46.57773 6.91972 17632 ft 274 kts 47°
2026-04-29 17:06 46.58972 6.94124 17235 ft 273 kts 47°
2026-04-29 17:06 46.60166 6.96269 16850 ft 272 kts 47°
2026-04-29 17:06 46.61354 6.98409 16464 ft 271 kts 48°
2026-04-29 17:06 46.62541 7.00546 16090 ft 270 kts 48°
2026-04-29 17:07 46.63720 7.02670 15714 ft 269 kts 48°
2026-04-29 17:07 46.64498 7.04073 15467 ft 268 kts 48°
2026-04-29 17:07 46.66059 7.06891 14981 ft 267 kts 48°
2026-04-29 17:07 46.67206 7.08962 14625 ft 266 kts 48°
2026-04-29 17:08 46.68366 7.11058 14273 ft 266 kts 48°
2026-04-29 17:08 46.69529 7.13161 13922 ft 267 kts 49°
2026-04-29 17:08 46.70696 7.15273 13533 ft 268 kts 49°
2026-04-29 17:08 46.71870 7.17400 13145 ft 270 kts 49°
2026-04-29 17:09 46.73046 7.19533 12759 ft 270 kts 49°
2026-04-29 17:09 46.74221 7.21666 12381 ft 269 kts 49°
2026-04-29 17:09 46.75388 7.23785 11992 ft 267 kts 49°
2026-04-29 17:09 46.76546 7.25889 11638 ft 265 kts 49°
2026-04-29 17:10 46.77696 7.27980 11264 ft 263 kts 50°
2026-04-29 17:10 46.78443 7.29343 11021 ft 254 kts 50°
2026-04-29 17:10 46.79845 7.31904 10526 ft 234 kts 50°
2026-04-29 17:10 46.80841 7.33721 10160 ft 224 kts 50°
2026-04-29 17:11 46.81797 7.35462 9761 ft 216 kts 50°
2026-04-29 17:11 46.82426 7.36608 9485 ft 212 kts 50°
2026-04-29 17:11 46.83333 7.38263 9086 ft 205 kts 49°
2026-04-29 17:11 46.84397 7.39515 8693 ft 197 kts 23°
2026-04-29 17:12 46.85710 7.39889 8392 ft 189 kts 357°
2026-04-29 17:12 46.86932 7.39401 8210 ft 178 kts 332°
2026-04-29 17:12 46.87926 7.38399 8045 ft 171 kts 325°
2026-04-29 17:12 46.88583 7.37715 7984 ft 171 kts 325°
2026-04-29 17:13 46.89877 7.36362 7992 ft 176 kts 326°
2026-04-29 17:13 46.90885 7.35305 7991 ft 181 kts 327°
2026-04-29 17:13 46.91900 7.34239 7995 ft 175 kts 326°
2026-04-29 17:13 46.92854 7.33234 7970 ft 162 kts 326°
2026-04-29 17:14 46.93736 7.32257 7946 ft 159 kts 320°
2026-04-29 17:14 46.94640 7.31145 7544 ft 178 kts 325°
2026-04-29 17:14 46.95629 7.29994 7148 ft 184 kts 326°
2026-04-29 17:14 46.96637 7.28790 6748 ft 189 kts 326°
2026-04-29 17:15 46.97660 7.27555 6343 ft 192 kts 326°
2026-04-29 17:15 46.98705 7.26350 5921 ft 187 kts 336°
2026-04-29 17:15 46.99891 7.25882 5501 ft 176 kts
2026-04-29 17:15 47.01028 7.26263 5165 ft 161 kts 33°
2026-04-29 17:16 47.01860 7.27248 4857 ft 150 kts 53°
2026-04-29 17:16 47.02512 7.28390 4657 ft 141 kts 52°
2026-04-29 17:16 47.03126 7.29452 4485 ft 133 kts 52°
2026-04-29 17:16 47.03711 7.30469 4315 ft 128 kts 52°
2026-04-29 17:17 47.04274 7.31451 4172 ft 125 kts 53°
2026-04-29 17:17 47.04696 7.32570 4039 ft 132 kts 84°
2026-04-29 17:17 47.04380 7.33868 3997 ft 147 kts 127°
2026-04-29 17:17 47.03583 7.34844 4009 ft 150 kts 133°
2026-04-29 17:18 47.02751 7.35728 4083 ft 145 kts 135°
2026-04-29 17:18 47.01991 7.36620 4097 ft 136 kts 129°
2026-04-29 17:18 47.01310 7.37579 4032 ft 140 kts 127°
2026-04-29 17:18 47.00610 7.38594 3933 ft 143 kts 128°
2026-04-29 17:19 46.99884 7.39551 3986 ft 138 kts 133°
2026-04-29 17:19 46.99138 7.40491 3960 ft 144 kts 132°
2026-04-29 17:19 46.98409 7.41483 3946 ft 141 kts 130°
2026-04-29 17:19 46.97745 7.42410 3785 ft 121 kts 130°
2026-04-29 17:20 46.97121 7.43152 3572 ft 112 kts 139°
2026-04-29 17:20 46.96474 7.43803 3362 ft 114 kts 141°
2026-04-29 17:20 46.95819 7.44442 3114 ft 112 kts 141°
2026-04-29 17:20 46.95181 7.45073 2918 ft 111 kts 137°
2026-04-29 17:21 46.94590 7.45793 2685 ft 110 kts 134°
2026-04-29 17:21 46.94016 7.46496 2438 ft 104 kts 135°
2026-04-29 17:21 46.93453 7.47170 2305 ft 107 kts 135°
2026-04-29 17:21 46.92887 7.47900 2133 ft 110 kts 133°
2026-04-29 17:22 46.92299 7.48634 1859 ft 110 kts 133°
2026-04-29 17:22 46.91740 7.49312 1690 ft 97 kts 135°
2026-04-29 17:22 46.91288 7.49871 1677 ft 66 kts 140°
2026-04-29 17:22 46.91087 7.50114 1710 ft 16 kts 142°
2026-04-29 17:23 46.91085 7.50195 1714 ft 9 kts 50°
2026-04-29 17:23 46.91110 7.50256 1708 ft 4 kts 101°
2026-04-29 17:23 46.91107 7.50308 1708 ft 7 kts 41°
2026-04-29 17:23 46.91118 7.50309 1711 ft 0 kts 344°